Temp
-10 -10 -10 -10 -10 -9 -10 -9 -9 -9 -9 -9 -9 -9 -9 -10 -9 -9 -9 -9 -9 -9 -9 -9 -9 -9 -9 -9 -9 -10 -10 -10 -10 -10 -10 -10 -10 -11 -11 -11 -11 -11 -11 -11 -11
-10 -10 -10 -10 -10 -10 -10 -10 -10 -10 -10 -10 -10 -9 -9 -10 -10 -10 -10 -10 -10 -10 -10 -10 -10 -9 -9 -9 -9 -10 -10 -10 -10 -10 -10 -10 -10 -11 -11 -11 -11 -11 -10 -10 -10
-10 -10 -10 -10 -10 -10 -10 -10 -10 -10 -10 -10 -10 -10 -10 -10 -10 -10 -10 -10 -10 -10 -10 -9 -9 -9 -9 -9 -9 -10 -10 -10 -10 -10 -10 -10 -10 -11 -11 -11 -11 -11 -10 -10 -10
-10 -10 -10 -10 -10 -10 -10 -10 -10 -10 -10 -10 -10 -10 -10 -10 -10 -10 -10 -10 -10 -10 -10 -10 -10 -9 -10 -10 -10 -10 -10 -10 -10 -10 -10 -10 -11 -11 -11 -11 -11 -11 -11 -11 -11
-10 -10 -10 -10 -10 -10 -10 -10 -10 -10 -10 -10 -10 -10 -10 -10 -10 -10 -10 -10 -10 -10 -10 -10 -10 -10 -9 -10 -10 -10 -10 -11 -11 -10 -10 -11 -11 -11 -11 -11 -11 -11 -11 -11 -11
-10 -10 -10 -10 -10 -10 -10 -10 -10 -10 -10 -10 -10 -10 -10 -10 -10 -10 -10 -10 -10 -10 -10 -10 -10 -10 -10 -10 -10 -10 -10 -10 -10 -11 -11 -11 -11 -11 -11 -11 -11 -11 -10 -11 -11
-11 -11 -11 -11 -10 -10 -10 -10 -10 -10 -10 -10 -10 -10 -10 -10 -10 -10 -10 -10 -10 -10 -10 -10 -10 -10 -10 -10 -10 -10 -10 -10 -10 -10 -10 -11 -11 -11 -11 -11 -11 -11 -10 -10 -10
-11 -11 -11 -11 -11 -11 -11 -11 -10 -10 -10 -10 -10 -10 -10 -10 -10 -10 -10 -10 -10 -10 -10 -10 -10 -10 -10 -10 -10 -10 -10 -10 -11 -11 -11 -10 -11 -11 -11 -11 -11 -11 -11 -11 -11
-12 -12 -12 -11 -11 -11 -11 -11 -11 -11 -11 -11 -11 -11 -11 -11 -10 -10 -11 -11 -11 -10 -10 -10 -10 -10 -10 -10 -10 -10 -10 -10 -10 -10 -10 -10 -10 -11 -11 -11 -11 -11 -11 -11 -11
-12 -12 -12 -12 -12 -12 -12 -11 -11 -11 -11 -11 -11 -11 -11 -11 -11 -11 -11 -11 -11 -11 -11 -11 -10 -10 -11 -11 -10 -10 -10 -10 -11 -11 -10 -10 -11 -11 -12 -11 -11 -11 -11 -11 -11
-12 -12 -12 -12 -12 -12 -12 -12 -12 -12 -12 -11 -11 -11 -11 -11 -11 -11 -11 -11 -11 -11 -11 -10 -10 -11 -11 -10 -10 -10 -10 -10 -11 -12 -11 -11 -11 -12 -11 -11 -11 -12 -12 -12 -11
-13 -12 -12 -12 -12 -12 -12 -12 -12 -12 -12 -12 -11 -11 -11 -11 -11 -11 -11 -11 -11 -11 -11 -10 -10 -11 -11 -10 -10 -11 -11 -11 -11 -12 -10 -11 -11 -11 -12 -12 -12 -12 -12 -12 -12
-13 -13 -13 -12 -12 -12 -12 -13 -12 -12 -11 -11 -11 -11 -11 -11 -11 -11 -11 -11 -11 -11 -11 -11 -11 -11 -11 -11 -11 -11 -11 -11 -11 -12 -11 -11 -11 -12 -12 -12 -12 -13 -13 -13 -13
-13 -13 -13 -13 -12 -13 -13 -13 -13 -12 -12 -11 -11 -11 -11 -12 -11 -11 -11 -11 -11 -11 -11 -10 -11 -11 -11 -11 -11 -11 -12 -11 -12 -12 -12 -12 -11 -12 -13 -13 -13 -13 -13 -13 -13
-13 -13 -12 -13 -13 -13 -13 -13 -13 -13 -12 -11 -11 -11 -12 -12 -11 -11 -11 -11 -11 -11 -11 -11 -11 -12 -12 -12 -12 -12 -12 -12 -12 -12 -11 -12 -12 -11 -12 -12 -13 -13 -13 -13 -13
-13 -14 -13 -13 -13 -13 -14 -14 -14 -14 -11 -11 -11 -11 -11 -12 -11 -12 -12 -12 -12 -12 -12 -12 -12 -13 -12 -12 -12 -13 -13 -12 -12 -12 -11 -12 -13 -11 -12 -13 -13 -14 -14 -14 -14
-13 -14 -14 -13 -14 -14 -13 -14 -14 -12 -11 -11 -12 -12 -12 -12 -12 -12 -12 -12 -12 -12 -13 -13 -13 -13 -13 -13 -13 -13 -13 -14 -13 -13 -12 -12 -12 -12 -13 -14 -14 -14 -14 -14 -14
-13 -14 -13 -13 -14 -14 -14 -14 -14 -11 -12 -12 -12 -12 -12 -13 -13 -13 -13 -13 -13 -13 -13 -13 -13 -13 -13 -13 -13 -13 -14 -14 -14 -14 -14 -14 -12 -13 -14 -14 -14 -14 -15 -15 -15
-14 -14 -13 -13 -14 -14 -14 -15 -11 -11 -12 -13 -13 -13 -13 -13 -14 -14 -13 -13 -13 -13 -14 -14 -13 -14 -14 -14 -14 -14 -15 -16 -16 -15 -15 -14 -14 -14 -14 -15 -15 -15 -15 -16 -16
-14 -14 -14 -13 -14 -14 -14 -14 -13 -12 -12 -13 -13 -13 -13 -14 -14 -14 -14 -13 -14 -14 -14 -14 -14 -15 -15 -15 -16 -16 -16 -16 -16 -16 -16 -15 -14 -14 -14 -15 -15 -15 -16 -16 -17
-14 -13 -13 -14 -14 -14 -14 -14 -13 -13 -13 -14 -14 -14 -13 -14 -14 -14 -14 -14 -14 -15 -15 -15 -15 -14 -15 -16 -16 -17 -16 -16 -17 -16 -16 -16 -14 -15 -15 -16 -16 -17 -17 -17 -18
-14 -13 -13 -14 -14 -14 -14 -14 -13 -14 -14 -14 -14 -14 -14 -14 -14 -14 -14 -15 -15 -15 -16 -16 -16 -15 -16 -16 -17 -17 -17 -17 -17 -17 -17 -18 -15 -16 -17 -17 -18 -18 -19 -19 -19
-14 -14 -14 -14 -14 -14 -14 -14 -13 -13 -14 -15 -15 -15 -15 -15 -15 -15 -15 -15 -15 -16 -16 -17 -16 -16 -16 -16 -17 -17 -17 -17 -18 -18 -17 -18 -17 -17 -18 -19 -19 -20 -20 -20 -20
-15 -14 -14 -14 -14 -14 -14 -14 -14 -15 -15 -15 -15 -15 -15 -15 -15 -15 -15 -16 -16 -17 -17 -17 -17 -17 -17 -17 -17 -17 -17 -17 -18 -18 -18 -18 -18 -19 -19 -20 -20 -21 -21 -20 -21
-15 -14 -14 -14 -14 -14 -15 -15 -15 -15 -15 -15 -15 -15 -15 -16 -16 -15 -16 -17 -17 -17 -17 -18 -18 -18 -18 -18 -18 -18 -18 -18 -19 -19 -19 -19 -19 -20 -21 -22 -22 -21 -22 -22 -22
-16 -15 -15 -15 -15 -14 -15 -14 -15 -15 -15 -15 -15 -16 -16 -16 -16 -16 -17 -17 -17 -17 -17 -18 -18 -19 -19 -19 -19 -19 -18 -18 -19 -19 -20 -20 -20 -21 -21 -22 -22 -23 -23 -24 -24
-16 -15 -15 -16 -16 -16 -16 -15 -15 -16 -15 -16 -16 -16 -16 -16 -16 -18 -19 -18 -18 -18 -18 -19 -19 -19 -19 -19 -19 -19 -18 -19 -20 -20 -21 -21 -21 -22 -23 -23 -23 -24 -24 -24 -25
Height
5857 5858 5860 5862 5864 5865 5866 5866 5868 5869 5869 5869 5870 5870 5871 5871 5872 5873 5873 5873 5873 5873 5873 5873 5873 5872 5872 5871 5870 5869 5868 5866 5865 5864 5864 5863 5863 5863 5862 5859 5858 5856 5855 5857 5858
5852 5854 5856 5858 5859 5861 5862 5863 5864 5866 5866 5867 5867 5868 5868 5869 5869 5870 5870 5870 5870 5870 5870 5870 5870 5869 5868 5867 5867 5865 5863 5862 5862 5861 5861 5861 5861 5861 5860 5858 5857 5853 5852 5854 5854
5846 5849 5851 5853 5855 5857 5858 5860 5861 5862 5863 5864 5864 5864 5865 5865 5866 5866 5866 5867 5866 5866 5866 5866 5866 5866 5865 5864 5863 5861 5860 5859 5858 5858 5858 5857 5857 5857 5855 5855 5853 5853 5849 5849 5851
5841 5843 5845 5847 5849 5851 5853 5854 5856 5857 5858 5859 5859 5860 5861 5861 5862 5862 5862 5862 5862 5862 5862 5861 5861 5861 5860 5860 5859 5858 5856 5855 5854 5853 5854 5854 5854 5853 5851 5848 5846 5850 5848 5847 5847
5835 5837 5839 5841 5843 5845 5847 5848 5849 5851 5852 5854 5854 5855 5856 5856 5856 5857 5857 5857 5857 5856 5856 5856 5856 5855 5854 5854 5855 5855 5853 5851 5850 5847 5849 5849 5848 5849 5848 5844 5842 5841 5841 5843 5842
5827 5830 5832 5834 5836 5838 5840 5841 5842 5844 5845 5847 5848 5849 5851 5851 5851 5851 5851 5851 5851 5851 5850 5850 5850 5850 5850 5849 5850 5850 5849 5848 5846 5846 5846 5845 5844 5845 5844 5839 5839 5837 5835 5835 5835
5819 5822 5824 5826 5829 5830 5832 5833 5835 5836 5837 5839 5841 5842 5845 5845 5844 5844 5844 5844 5844 5844 5844 5844 5844 5844 5845 5844 5843 5842 5843 5843 5842 5842 5840 5840 5841 5838 5838 5836 5834 5831 5830 5829 5829
5810 5813 5815 5818 5820 5822 5824 5825 5826 5828 5829 5831 5832 5834 5836 5837 5837 5837 5837 5837 5837 5837 5838 5837 5837 5838 5838 5838 5836 5836 5836 5837 5836 5835 5833 5831 5836 5832 5831 5829 5826 5826 5825 5824 5823
5801 5804 5806 5809 5811 5814 5815 5816 5818 5819 5821 5822 5824 5825 5828 5830 5830 5829 5829 5830 5831 5831 5831 5830 5830 5831 5833 5830 5829 5828 5827 5830 5830 5828 5824 5824 5827 5827 5825 5820 5820 5820 5819 5818 5816
5791 5794 5797 5800 5802 5805 5807 5808 5809 5811 5813 5814 5815 5817 5820 5821 5821 5821 5821 5822 5823 5823 5823 5823 5822 5824 5826 5822 5821 5820 5820 5820 5822 5822 5816 5816 5816 5820 5816 5816 5815 5813 5811 5810 5808
5781 5784 5787 5790 5793 5795 5798 5799 5802 5803 5804 5805 5806 5807 5809 5811 5812 5813 5814 5815 5816 5816 5815 5815 5815 5818 5816 5813 5813 5812 5811 5810 5813 5811 5807 5809 5807 5809 5805 5804 5804 5805 5804 5803 5801
5772 5774 5777 5780 5783 5786 5787 5789 5791 5792 5794 5796 5796 5798 5799 5801 5803 5805 5806 5807 5807 5807 5808 5808 5806 5809 5807 5806 5805 5804 5802 5804 5802 5801 5797 5798 5798 5798 5797 5795 5794 5793 5794 5794 5793
5762 5765 5767 5770 5773 5776 5778 5780 5780 5781 5782 5788 5787 5789 5790 5791 5794 5797 5798 5798 5799 5798 5800 5797 5798 5799 5799 5797 5796 5794 5795 5794 5793 5792 5789 5787 5788 5789 5789 5787 5785 5785 5785 5783 5782
5751 5755 5757 5759 5764 5766 5769 5769 5770 5771 5770 5775 5779 5777 5781 5783 5782 5789 5789 5789 5788 5790 5789 5787 5790 5788 5788 5789 5787 5787 5787 5785 5785 5783 5783 5782 5778 5781 5780 5778 5777 5777 5776 5775 5773
5735 5742 5745 5748 5752 5755 5758 5758 5759 5761 5757 5761 5765 5769 5772 5775 5774 5776 5776 5776 5776 5778 5779 5780 5779 5779 5779 5780 5778 5780 5778 5777 5775 5774 5772 5774 5771 5766 5768 5769 5769 5767 5765 5764 5762
5723 5727 5732 5736 5742 5743 5742 5746 5748 5748 5743 5747 5751 5758 5761 5763 5763 5762 5764 5765 5766 5766 5768 5768 5768 5770 5770 5771 5771 5770 5769 5767 5765 5764 5762 5766 5762 5756 5756 5755 5755 5754 5753 5753 5750
5709 5713 5719 5724 5731 5727 5729 5729 5730 5732 5737 5739 5741 5745 5748 5751 5752 5752 5752 5754 5755 5757 5758 5758 5759 5758 5759 5760 5760 5759 5757 5755 5753 5753 5753 5751 5749 5750 5748 5746 5745 5745 5741 5738 5736
5696 5700 5706 5712 5715 5713 5715 5716 5713 5722 5726 5727 5731 5733 5734 5736 5738 5740 5742 5744 5745 5746 5747 5747 5749 5748 5749 5748 5747 5746 5746 5745 5743 5741 5741 5740 5736 5738 5735 5734 5734 5731 5728 5727 5722
5685 5688 5691 5699 5702 5702 5700 5694 5703 5710 5714 5717 5718 5718 5722 5724 5726 5727 5729 5732 5733 5734 5736 5735 5736 5737 5737 5737 5737 5736 5735 5738 5732 5731 5729 5728 5727 5728 5723 5722 5719 5717 5715 5713 5711
5673 5674 5678 5686 5690 5689 5682 5684 5693 5697 5699 5703 5706 5709 5710 5713 5714 5715 5717 5719 5720 5722 5723 5722 5722 5724 5726 5725 5724 5725 5725 5722 5722 5717 5712 5714 5715 5713 5714 5710 5708 5704 5700 5699 5696
5660 5658 5668 5673 5677 5671 5666 5672 5680 5684 5686 5691 5694 5696 5699 5700 5703 5703 5705 5706 5708 5710 5709 5708 5710 5713 5713 5714 5714 5713 5711 5711 5710 5703 5699 5699 5700 5697 5698 5697 5694 5691 5687 5683 5681
5645 5646 5653 5659 5656 5654 5658 5664 5669 5672 5675 5678 5681 5684 5685 5688 5689 5691 5692 5695 5697 5698 5697 5696 5696 5697 5697 5695 5698 5697 5698 5696 5691 5691 5685 5680 5686 5684 5685 5679 5675 5674 5672 5668 5663
5629 5633 5637 5641 5638 5641 5647 5651 5655 5658 5662 5664 5666 5669 5672 5674 5675 5676 5680 5683 5684 5685 5685 5685 5681 5684 5681 5683 5685 5685 5684 5681 5677 5674 5669 5669 5672 5672 5667 5661 5660 5657 5653 5650 5647
5615 5616 5619 5623 5625 5630 5634 5637 5640 5645 5649 5652 5653 5655 5656 5658 5662 5665 5668 5669 5670 5670 5668 5668 5667 5669 5670 5670 5669 5668 5669 5666 5662 5653 5655 5655 5659 5658 5652 5647 5644 5640 5635 5633 5630
5596 5600 5606 5607 5613 5619 5620 5624 5628 5630 5633 5635 5635 5639 5642 5645 5648 5648 5653 5656 5655 5656 5652 5652 5651 5652 5653 5652 5651 5652 5653 5646 5642 5642 5635 5642 5640 5647 5637 5632 5626 5622 5618 5615 5610
5581 5587 5592 5597 5601 5604 5604 5610 5616 5616 5616 5617 5621 5626 5627 5628 5635 5635 5638 5637 5640 5642 5639 5638 5635 5634 5633 5634 5634 5633 5638 5628 5627 5627 5623 5623 5620 5627 5623 5614 5611 5605 5601 5598 5595
5565 5573 5578 5580 5584 5586 5590 5596 5598 5598 5599 5600 5608 5608 5610 5616 5617 5618 5617 5621 5622 5623 5621 5621 5621 5619 5615 5617 5615 5612 5625 5619 5613 5614 5608 5601 5607 5603 5602 5597 5593 5590 5588 5583 5579
Wind_Speed
23 22 21 20 19 18 17 16 15 14 13 13 14 15 14 15 15 14 13 12 12 12 12 13 14 15 16 18 21 22 23 21 19 17 15 15 15 16 18 20 23 20 20 17 15
26 25 24 23 23 22 20 19 19 18 17 17 17 17 17 17 17 17 17 16 17 17 17 17 19 19 21 22 24 25 22 20 18 18 18 17 18 18 20 21 21 22 21 20 19
30 29 28 27 26 25 24 23 23 22 21 20 19 20 20 21 21 22 22 22 21 22 22 22 23 24 25 26 25 22 20 18 19 20 21 21 22 22 23 22 19 19 24 24 21
34 33 32 31 30 29 29 28 27 27 25 23 21 22 22 23 25 24 24 24 24 25 25 26 27 29 30 28 24 19 22 23 25 24 23 23 23 24 25 26 27 24 25 25 25
39 38 37 36 35 34 33 33 31 30 28 26 25 24 25 25 27 26 26 26 27 29 30 31 31 30 29 25 21 21 24 24 26 29 26 25 26 25 24 27 29 31 30 28 27
43 41 40 39 39 38 37 36 35 34 33 31 30 28 28 29 29 30 30 31 32 34 34 32 28 26 26 26 26 25 24 25 27 28 28 28 29 27 26 28 28 29 30 31 30
45 44 44 43 42 41 40 39 38 37 36 35 34 33 31 33 34 34 34 35 35 34 31 30 30 31 29 29 28 28 25 25 28 28 30 31 29 30 28 29 28 29 33 33 31
46 46 46 45 44 43 43 42 41 40 39 37 36 35 34 35 36 37 38 36 34 33 33 33 34 33 30 29 30 30 29 28 29 29 30 32 26 28 28 30 32 33 34 35 34
48 46 45 45 43 43 43 42 42 41 41 40 39 40 39 36 38 39 38 36 35 35 35 34 33 31 29 31 32 32 33 29 28 30 33 34 28 28 30 35 36 36 36 34 32
49 48 48 47 45 44 43 43 42 42 41 40 39 39 38 35 36 38 38 38 37 35 33 33 32 30 27 32 33 34 34 34 30 31 36 36 36 32 35 35 36 34 34 33 32
48 47 47 47 46 45 44 44 43 44 43 42 42 42 41 38 37 36 35 35 35 35 36 35 35 32 35 38 38 37 38 38 34 35 37 35 37 33 35 34 33 31 29 30 30
49 47 46 45 45 43 43 42 41 43 41 41 41 41 40 39 38 37 37 37 36 36 36 37 40 37 39 41 42 42 41 36 38 37 37 35 33 32 34 35 34 33 33 31 32
51 51 49 49 47 45 44 44 43 42 45 41 42 43 42 43 41 38 36 38 38 39 38 43 43 42 43 41 39 39 36 36 37 35 36 38 38 34 35 36 36 35 35 36 38
54 55 54 53 51 49 47 47 46 46 49 47 44 47 44 42 44 40 43 45 44 41 44 45 41 40 38 35 35 36 34 37 37 40 40 42 45 39 35 37 38 37 38 39 40
65 59 59 55 54 51 51 51 50 49 54 51 47 47 45 44 45 42 41 41 42 40 40 37 35 35 36 36 36 34 36 38 41 42 46 41 44 46 42 42 40 39 38 38 40
64 67 61 58 59 60 60 54 55 57 59 56 51 44 44 43 43 42 39 38 37 38 37 37 38 35 35 36 35 37 39 42 44 46 51 42 44 50 45 44 42 43 44 45 48
58 70 62 55 55 60 63 62 60 59 53 52 51 46 43 43 41 39 37 36 37 36 35 37 36 36 36 36 38 41 42 43 46 45 48 49 48 46 45 46 46 47 51 54 56
53 54 66 58 60 56 53 61 62 52 49 49 46 45 45 40 39 38 38 38 37 37 39 39 37 38 39 41 42 43 44 45 45 47 47 46 52 51 52 52 53 56 57 57 58
47 53 58 54 49 46 49 58 55 48 43 40 39 41 39 39 40 40 41 40 42 42 39 41 41 40 40 43 43 43 43 40 45 47 49 52 55 55 56 55 55 56 56 56 56
49 50 50 43 41 44 51 52 49 48 45 43 42 42 44 44 45 45 44 45 43 44 44 46 46 44 43 41 41 41 41 44 47 51 57 58 58 58 53 53 53 54 54 55 56
50 57 55 49 48 52 58 57 55 50 46 47 46 45 46 47 48 50 49 50 46 46 46 47 50 52 48 44 42 44 48 50 48 53 56 57 61 58 54 55 57 58 57 58 58
57 58 54 57 55 62 60 60 63 56 52 51 49 49 50 50 51 53 53 49 50 48 44 43 47 51 48 50 50 50 48 46 50 53 53 57 63 59 57 58 58 58 58 60 64
60 62 65 66 64 68 66 63 62 65 56 55 56 54 52 55 56 58 56 53 53 49 43 43 49 52 57 56 54 53 50 49 52 56 62 62 63 57 57 58 58 60 63 65 68
57 62 68 70 66 68 71 66 66 61 60 58 58 59 63 62 60 58 60 58 53 50 51 52 57 58 59 58 57 56 53 55 58 62 61 61 59 59 59 60 63 65 67 71 71
59 67 64 70 68 68 70 69 67 62 62 60 65 67 63 62 63 64 64 56 53 54 58 54 57 56 56 57 56 56 56 60 63 62 65 60 60 57 61 63 65 69 71 70 72
63 63 69 68 67 70 73 74 75 70 70 69 73 70 66 67 68 59 58 58 61 62 59 58 58 58 60 61 62 63 61 66 65 64 64 62 64 60 63 65 68 68 68 69 67
63 69 68 58 58 59 64 68 73 72 75 76 73 67 65 63 61 53 59 60 59 59 56 60 61 61 63 64 68 72 68 65 63 60 62 67 64 64 65 68 69 69 68 67 68
Wind_Direction
228 227 229 231 233 235 234 235 238 243 249 256 259 257 252 244 239 237 237 247 256 262 268 278 284 289 295 297 301 304 298 297 293 298 293 295 294 292 295 303 314 312 303 308 303
231 232 233 236 240 242 241 242 244 249 254 256 256 255 253 250 247 248 250 258 264 269 275 281 286 288 292 296 301 300 295 293 289 289 287 291 295 296 295 298 307 299 302 305 308
233 235 237 240 242 246 248 251 253 255 258 259 260 254 254 253 253 255 262 267 272 274 278 282 285 288 290 294 298 297 292 289 287 285 286 291 296 299 300 302 295 297 302 307 312
237 238 240 242 244 247 249 252 254 258 259 260 263 262 257 256 255 256 261 265 270 273 277 281 285 288 289 292 289 289 290 289 288 284 284 288 293 304 306 306 302 302 299 303 309
241 242 244 246 247 250 253 255 257 259 259 258 258 259 258 258 260 262 265 268 273 277 281 283 285 285 287 286 279 287 286 284 285 286 290 293 295 298 301 297 300 303 299 299 303
242 245 246 248 250 252 254 257 259 260 261 261 260 259 258 258 262 266 269 272 275 278 281 281 280 282 283 281 282 283 280 278 277 280 285 288 291 291 291 291 296 296 301 307 306
244 246 247 249 251 254 256 257 259 261 262 263 261 259 259 259 262 266 271 275 277 278 277 276 277 279 280 281 283 283 280 279 280 282 284 284 287 290 291 290 292 293 299 300 303
246 248 249 250 252 253 255 258 260 261 262 264 264 263 261 262 265 268 272 273 272 272 274 276 278 280 283 283 284 283 282 282 286 288 285 286 286 290 288 289 288 289 293 298 298
245 246 249 252 252 254 256 258 261 262 262 262 264 264 265 265 267 269 270 269 269 270 272 274 277 281 284 285 283 284 286 288 287 287 284 282 282 281 286 283 285 287 291 292 290
245 246 247 250 252 254 256 258 261 263 264 265 265 265 265 264 265 266 268 269 270 271 272 274 276 280 287 282 283 283 284 282 282 280 280 284 286 287 279 280 282 284 285 286 287
244 246 248 249 250 252 254 256 259 261 262 262 263 263 266 265 264 265 268 269 271 273 274 274 275 281 278 277 280 281 281 281 284 280 280 280 287 289 289 294 293 293 289 286 280
247 245 246 248 249 251 254 255 258 261 261 263 264 265 265 265 264 266 268 270 271 270 271 274 274 274 274 277 277 278 277 281 279 279 282 286 285 286 289 291 291 290 289 286 284
247 249 248 247 247 249 251 255 255 257 261 260 264 263 264 265 266 266 267 266 266 266 271 270 271 271 274 272 272 273 278 277 277 277 278 282 283 285 286 286 285 287 289 291 290
245 248 248 248 248 250 252 253 254 256 261 261 258 259 262 265 265 271 269 266 265 266 270 270 271 270 270 271 271 277 277 278 280 281 282 283 286 283 282 281 286 289 289 289 291
243 243 247 248 250 253 253 253 253 257 263 267 265 260 260 263 272 272 269 267 264 263 267 269 267 264 270 273 277 276 277 280 282 283 284 285 289 289 286 286 286 288 290 288 288
253 239 245 248 253 256 254 253 253 255 259 262 266 268 262 267 271 271 268 266 263 264 265 267 270 271 272 275 277 279 279 279 279 280 282 287 284 288 292 294 297 297 295 292 291
248 245 240 247 255 258 262 252 250 254 263 262 264 269 268 265 264 265 265 263 262 263 265 266 269 271 274 275 277 276 274 274 275 279 283 282 282 285 289 291 293 295 294 292 291
246 251 248 256 259 258 254 260 260 261 259 260 264 264 266 264 262 262 262 259 261 264 268 271 272 273 274 275 275 274 273 271 277 279 278 279 283 292 293 292 293 292 290 291 289
245 247 251 248 247 251 251 251 254 257 257 256 256 261 261 261 263 264 264 267 269 270 270 273 273 272 271 272 272 271 269 275 274 274 278 282 285 291 291 290 288 289 288 286 285
240 244 244 240 246 248 247 250 251 253 256 254 255 258 261 262 263 265 267 269 271 273 275 275 273 270 269 267 265 271 274 274 279 281 282 286 289 289 288 285 285 285 283 282 280
231 235 242 240 240 241 234 237 245 252 254 255 258 257 261 262 263 265 266 266 270 272 272 274 275 275 270 268 270 272 275 280 280 278 281 287 288 287 287 289 286 282 280 277 277
237 239 243 234 230 232 231 238 242 247 255 255 254 257 259 260 261 262 264 268 268 270 266 264 266 266 269 270 277 280 284 285 282 285 281 277 284 285 287 283 281 280 279 275 272
237 239 239 231 228 234 239 244 242 248 251 252 256 255 259 260 259 260 263 265 268 266 261 255 260 266 269 273 277 281 282 281 281 280 279 277 290 288 285 280 279 277 274 273 274
235 235 234 230 229 232 235 242 244 246 249 245 252 255 257 256 255 258 261 261 260 258 258 259 263 268 274 278 279 280 282 283 278 276 281 283 284 284 281 280 279 277 275 275 276
236 237 235 236 234 232 232 236 241 244 246 249 249 254 252 253 254 259 261 257 251 251 255 265 271 278 281 280 279 280 283 282 276 278 275 284 280 281 280 278 276 276 277 277 277
237 236 233 233 235 238 238 241 243 243 240 240 248 246 247 250 254 257 252 247 250 256 261 272 281 283 284 283 280 278 279 276 277 277 281 279 276 279 276 275 276 277 277 280 281
244 238 238 237 238 238 240 242 234 233 236 240 241 242 247 252 255 253 254 254 259 264 272 284 286 288 284 281 277 275 283 278 277 278 278 277 282 277 277 277 276 278 279 281 282